Regional Weather Roundup
Issued by NWS Albany, NY

Home | Current Version | Previous Version | Text Only | Print | Product List | Glossary On
Versions: 1 2 3 4 5 6 7 8 9 10 11 12 13 14 15 16 17 18 19 20 21 22 23 24 25 26 27 28 29 30 31 32 33 34 35 36 37 38 39 40 41 42 43 44 45 46 47 48 49 50
000
ASUS41 KALY 190710
RWRALY

NEW YORK STATE HOURLY WEATHER ROUNDUP
NATIONAL WEATHER SERVICE ALBANY NY
300 AM EDT SUN APR 19 2015

NOTE: "FAIR" INDICATES FEW OR NO CLOUDS BELOW 12,000 FEET WITH NO
SIGNIFICANT WEATHER AND/OR NO OBSTRUCTIONS TO VISIBILITY.

NYZ032-033-038>043-046>054-057>066-NYZ062>081-190800-
EAST


CITY           SKY/WX    TMP DP  RH WIND       PRES   REMARKS
ALBANY         CLEAR     44  33  65 N7        30.19R
GLENS FALLS    CLEAR     39  31  72 N5        30.19R
POUGHKEEPSIE   CLEAR     49  24  37 N7        30.13R
NEWBURGH       CLEAR     52  25  35 NE12      30.14R
MONTGOMERY     PTCLDY    46  27  47 N5        30.12R
WHITE PLAINS   CLEAR     53  19  26 N6        30.11R
ISLIP          PTCLDY    52  29  41 NE8       30.10R
NEW YORK CITY  PTCLDY    56  25  30 NE6       30.11R
CENTRAL PARK   CLEAR     59  20  22 NE8G20    30.14R
$$

NYZ005>009-017-018-044>046-055-056-190800-
CENTRAL


CITY           SKY/WX    TMP DP  RH WIND       PRES   REMARKS
FULTON         CLEAR     40  29  64 N6        30.22R
SYRACUSE       CLEAR     41  29  62 N8        30.20R
ROME           CLEAR     43  27  53 N6        30.22R
ELMIRA         CLEAR     35  29  78 CALM      30.17S
BINGHAMTON     CLEAR     42  25  50 NE9       30.14S
MONTICELLO     CLEAR     43  21  42 N6        30.14S
$$

NYZ026>034-041>043-190800-
NORTH


CITY           SKY/WX    TMP DP  RH WIND       PRES   REMARKS
WATERTOWN      CLEAR     37  29  72 NE8       30.25R WCI  31
FORT DRUM      NOT AVBL
MASSENA        CLEAR     38  24  57 NW3       30.29R
SARANAC LAKE   CLEAR     32  25  75 CALM      30.19R
PLATTSBURGH    CLEAR     39  28  64 NW9       30.23R WCI  33
$$

NYZ001>004-010>016-019>021-190800-
WEST


CITY           SKY/WX    TMP DP  RH WIND       PRES   REMARKS
NIAGARA FALLS  CLEAR     42  27  55 E10       30.18S
BUFFALO        PTCLDY    45  27  49 E10       30.18S
DUNKIRK        PTCLDY    40  28  62 NE7       30.14F
JAMESTOWN      PTCLDY    45  21  39 NE9       30.13R
WELLSVILLE     CLEAR     41  23  48 E9        30.16S
ROCHESTER      CLEAR     45  28  51 E13G23    30.22R
PENN YAN       CLEAR     43  28  55 N3        30.19S
$$

             KEY
       WCI = WIND CHILL INDEX
       VSB = VISIBILITY
       HX  = HEAT INDEX
$$



USA.gov is the U.S. government's official web portal to all federal, state and local government web resources and services.